Location: Ellerstadt
(49.4644°N, 8.2615°E)
Time: 03:50:21
(UTC+00:00)

Cosmos 2219 Rocket - Pass Details

Date: 03 March 2021
Orbit: 827 x 848 km, 71.0° (Epoch: 11 April)

Event Time Altitude Azimuth Distance (km) Brightness Sun altitude
Rises 19:24:35 0° 195° (SSW) 3,354 5.3 -21.9°
Reaches altitude 10° 19:27:01 10° 192° (SSW) 2,426 4.5 -22.3°
Maximum altitude 19:32:30 62° 113° (ESE) 932 2.1 -23.2°
Drops below altitude 10° 19:38:02 10° 34° (NE) 2,454 4.5 -24.0°
Sets 19:40:30 0° 31° (NNE) 3,395 5.2 -24.4°
